AAL1213 KSLC-KFAT

Flight info

Callsign AAL1213
Flight time 1h 23m
Altitude 38000
Route DEZRT2 MVA FRA NTELL
Aircraft A319/M-SDE3FGHIRWY/LB1

Departure

Time 2026-04-21 23:56
Airport Salt Lake City International Airport (KSLC)

Arrival

Time 2026-04-22 01:20
Airport Fresno Yosemite International Airport (KFAT)
Time Latitude Longitude Altitude Speed Heading
2026-04-21 23:42 40.78628 -111.98435 4235 ft 0 kts 164°
2026-04-21 23:46 40.78631 -111.98436 4235 ft 2 kts 163°
2026-04-21 23:46 40.78650 -111.98443 4233 ft 3 kts 161°
2026-04-21 23:47 40.78669 -111.98453 4235 ft 3 kts 156°
2026-04-21 23:47 40.78687 -111.98465 4235 ft 3 kts 146°
2026-04-21 23:47 40.78702 -111.98481 4234 ft 3 kts 116°
2026-04-21 23:47 40.78706 -111.98497 4233 ft 1 kts 85°
2026-04-21 23:48 40.78705 -111.98502 4232 ft 0 kts 85°
2026-04-21 23:51 40.78706 -111.98482 4233 ft 4 kts 85°
2026-04-21 23:51 40.78710 -111.98427 4235 ft 11 kts 85°
2026-04-21 23:51 40.78720 -111.98279 4235 ft 20 kts 83°
2026-04-21 23:51 40.78734 -111.98088 4235 ft 22 kts 85°
2026-04-21 23:52 40.78747 -111.97886 4235 ft 23 kts 85°
2026-04-21 23:52 40.78773 -111.97682 4234 ft 22 kts 47°
2026-04-21 23:52 40.78871 -111.97697 4235 ft 14 kts 354°
2026-04-21 23:52 40.78990 -111.97708 4235 ft 19 kts 355°
2026-04-21 23:53 40.79140 -111.97727 4235 ft 22 kts 354°
2026-04-21 23:53 40.79302 -111.97746 4235 ft 25 kts 354°
2026-04-21 23:53 40.79475 -111.97766 4234 ft 25 kts 354°
2026-04-21 23:53 40.79650 -111.97788 4234 ft 25 kts 357°
2026-04-21 23:54 40.79790 -111.97802 4234 ft 33 kts 355°
2026-04-21 23:54 40.80021 -111.97828 4235 ft 33 kts 355°
2026-04-21 23:54 40.80252 -111.97850 4234 ft 33 kts
2026-04-21 23:54 40.80463 -111.97830 4235 ft 28 kts 354°
2026-04-21 23:55 40.80657 -111.97853 4234 ft 28 kts 354°
2026-04-21 23:55 40.80742 -111.97747 4231 ft 15 kts 136°
2026-04-21 23:55 40.80648 -111.97682 4233 ft 15 kts 175°
2026-04-21 23:55 40.80480 -111.97666 4236 ft 42 kts 174°
2026-04-21 23:56 40.80028 -111.97612 4236 ft 89 kts 175°
2026-04-21 23:56 40.79249 -111.97521 4235 ft 135 kts 175°
2026-04-21 23:56 40.78199 -111.97380 4409 ft 160 kts 176°
2026-04-21 23:56 40.77068 -111.97216 4854 ft 166 kts 175°
2026-04-21 23:57 40.75916 -111.97058 5400 ft 168 kts 175°
2026-04-21 23:57 40.74751 -111.96918 5864 ft 169 kts 179°
2026-04-21 23:57 40.73666 -111.97516 6065 ft 183 kts 225°
2026-04-21 23:57 40.73190 -111.99151 6188 ft 209 kts 263°
2026-04-21 23:58 40.73508 -112.01153 6303 ft 236 kts 281°
2026-04-21 23:58 40.74008 -112.03324 6451 ft 260 kts 282°
2026-04-21 23:58 40.74562 -112.05701 6872 ft 280 kts 282°
2026-04-21 23:58 40.75144 -112.08182 7525 ft 286 kts 282°
2026-04-21 23:59 40.75732 -112.10704 8249 ft 290 kts 282°
2026-04-21 23:59 40.76321 -112.13263 8997 ft 293 kts 282°
2026-04-21 23:59 40.76910 -112.15854 9767 ft 296 kts 281°
2026-04-21 23:59 40.77505 -112.18511 10224 ft 312 kts 281°
2026-04-22 00:00 40.78131 -112.21354 10456 ft 332 kts 281°
2026-04-22 00:00 40.78795 -112.24352 11013 ft 340 kts 281°
2026-04-22 00:00 40.79468 -112.27364 11688 ft 344 kts 281°
2026-04-22 00:00 40.80150 -112.30414 12377 ft 348 kts 281°
2026-04-22 00:01 40.80838 -112.33490 13086 ft 351 kts 280°
2026-04-22 00:01 40.81533 -112.36599 13755 ft 355 kts 280°
2026-04-22 00:01 40.82236 -112.39741 14380 ft 358 kts 280°
2026-04-22 00:01 40.82941 -112.42907 15026 ft 360 kts 280°
2026-04-22 00:02 40.83646 -112.46090 15683 ft 362 kts 279°
2026-04-22 00:02 40.84351 -112.49292 16324 ft 364 kts 279°
2026-04-22 00:02 40.85057 -112.52515 16972 ft 367 kts 279°
2026-04-22 00:02 40.85733 -112.55763 17625 ft 366 kts 275°
2026-04-22 00:03 40.86035 -112.59068 18219 ft 360 kts 264°
2026-04-22 00:03 40.85891 -112.62337 18753 ft 356 kts 257°
2026-04-22 00:03 40.85617 -112.65603 19298 ft 359 kts 257°
2026-04-22 00:03 40.85344 -112.68892 19841 ft 361 kts 257°
2026-04-22 00:04 40.85073 -112.72203 20390 ft 364 kts 257°
2026-04-22 00:04 40.84801 -112.75537 20925 ft 367 kts 257°
2026-04-22 00:04 40.84527 -112.78893 21444 ft 369 kts 257°
2026-04-22 00:04 40.84250 -112.82280 21976 ft 372 kts 257°
2026-04-22 00:05 40.84168 -112.85738 22518 ft 380 kts 263°
2026-04-22 00:05 40.84188 -112.89236 23053 ft 383 kts 263°
2026-04-22 00:05 40.84206 -112.92763 23521 ft 385 kts 263°
2026-04-22 00:05 40.84220 -112.96310 23937 ft 388 kts 263°
2026-04-22 00:06 40.84230 -112.99878 24350 ft 390 kts 263°
2026-04-22 00:06 40.84236 -113.03466 24760 ft 392 kts 263°
2026-04-22 00:06 40.84243 -113.07076 25174 ft 394 kts 263°
2026-04-22 00:06 40.84250 -113.10708 25586 ft 396 kts 263°
2026-04-22 00:07 40.84258 -113.14357 25997 ft 398 kts 262°
2026-04-22 00:07 40.84266 -113.18026 26397 ft 400 kts 262°
2026-04-22 00:07 40.84271 -113.21709 26796 ft 402 kts 262°
2026-04-22 00:07 40.84276 -113.25414 27193 ft 404 kts 262°
2026-04-22 00:08 40.84282 -113.29139 27593 ft 406 kts 262°
2026-04-22 00:08 40.84287 -113.32925 27993 ft 409 kts 262°
2026-04-22 00:08 40.84288 -113.36688 28367 ft 411 kts 262°
2026-04-22 00:08 40.84283 -113.40468 28741 ft 413 kts 262°
2026-04-22 00:09 40.84273 -113.44274 29115 ft 415 kts 262°
2026-04-22 00:09 40.84263 -113.48100 29483 ft 418 kts 262°
2026-04-22 00:09 40.84256 -113.51942 29826 ft 420 kts 262°
2026-04-22 00:09 40.84250 -113.55806 30124 ft 422 kts 262°
2026-04-22 00:10 40.84243 -113.59688 30419 ft 424 kts 261°
2026-04-22 00:10 40.84234 -113.63593 30711 ft 426 kts 261°
2026-04-22 00:10 40.84225 -113.67512 31002 ft 428 kts 261°
2026-04-22 00:10 40.84214 -113.71455 31279 ft 430 kts 261°
2026-04-22 00:11 40.84200 -113.75417 31557 ft 432 kts 261°
2026-04-22 00:11 40.84185 -113.79379 31923 ft 432 kts 261°
2026-04-22 00:11 40.84172 -113.83345 32323 ft 431 kts 261°
2026-04-22 00:11 40.84158 -113.87297 32719 ft 430 kts 261°
2026-04-22 00:12 40.84139 -113.91246 33109 ft 430 kts 261°
2026-04-22 00:12 40.84115 -113.95188 33484 ft 429 kts 261°
2026-04-22 00:12 40.84090 -113.99122 33869 ft 428 kts 261°
2026-04-22 00:12 40.84065 -114.03054 34212 ft 428 kts 261°
2026-04-22 00:13 40.84035 -114.06971 34536 ft 427 kts 261°
2026-04-22 00:13 40.84002 -114.10889 34845 ft 426 kts 261°
2026-04-22 00:13 40.83967 -114.14802 35158 ft 426 kts 261°
2026-04-22 00:13 40.83933 -114.18710 35452 ft 425 kts 261°
2026-04-22 00:14 40.83900 -114.22615 35745 ft 425 kts 261°
2026-04-22 00:14 40.83867 -114.26508 36034 ft 424 kts 261°
2026-04-22 00:14 40.83833 -114.30394 36311 ft 423 kts 261°
2026-04-22 00:14 40.83800 -114.34274 36575 ft 423 kts 261°
2026-04-22 00:15 40.83764 -114.38167 36843 ft 423 kts 261°
2026-04-22 00:15 40.83728 -114.42051 37104 ft 423 kts 261°
2026-04-22 00:15 40.83686 -114.45930 37358 ft 423 kts 260°
2026-04-22 00:15 40.83639 -114.49811 37609 ft 422 kts 260°
2026-04-22 00:16 40.83597 -114.53740 37713 ft 423 kts 261°
2026-04-22 00:16 40.83577 -114.61506 37714 ft 422 kts 260°
2026-04-22 00:17 40.83140 -114.69142 37712 ft 409 kts 248°
2026-04-22 00:17 40.81022 -114.75891 37705 ft 392 kts 230°
2026-04-22 00:18 40.77512 -114.81189 37702 ft 379 kts 214°
2026-04-22 00:18 40.73402 -114.85551 37700 ft 380 kts 214°
2026-04-22 00:19 40.69280 -114.89902 37701 ft 380 kts 214°
2026-04-22 00:19 40.65153 -114.94257 37702 ft 380 kts 214°
2026-04-22 00:20 40.61027 -114.98614 37701 ft 380 kts 214°
2026-04-22 00:20 40.56895 -115.02968 37702 ft 381 kts 214°
2026-04-22 00:21 40.52764 -115.07317 37699 ft 381 kts 214°
2026-04-22 00:21 40.48626 -115.11670 37702 ft 381 kts 214°
2026-04-22 00:22 40.44481 -115.16009 37699 ft 381 kts 214°
2026-04-22 00:22 40.40333 -115.20350 37702 ft 381 kts 214°
2026-04-22 00:23 40.36179 -115.24689 37697 ft 382 kts 214°
2026-04-22 00:23 40.32026 -115.29032 37698 ft 382 kts 214°
2026-04-22 00:24 40.27837 -115.33390 37697 ft 382 kts 214°
2026-04-22 00:24 40.23673 -115.37717 37699 ft 382 kts 214°
2026-04-22 00:25 40.19504 -115.42047 37696 ft 383 kts 214°
2026-04-22 00:25 40.15333 -115.46376 37692 ft 383 kts 214°
2026-04-22 00:26 40.11159 -115.50690 37692 ft 383 kts 214°
2026-04-22 00:26 40.06977 -115.55001 37695 ft 383 kts 214°
2026-04-22 00:27 40.03500 -115.58591 37699 ft 383 kts 214°
2026-04-22 00:27 39.99316 -115.62912 37684 ft 383 kts 214°
2026-04-22 00:28 39.95124 -115.67222 37683 ft 384 kts 214°
2026-04-22 00:28 39.90935 -115.71524 37683 ft 384 kts 214°
2026-04-22 00:29 39.86714 -115.75857 37677 ft 384 kts 214°
2026-04-22 00:29 39.82513 -115.80152 37679 ft 384 kts 214°
2026-04-22 00:30 39.78312 -115.84440 37680 ft 384 kts 215°
2026-04-22 00:30 39.74108 -115.88730 37668 ft 384 kts 214°
2026-04-22 00:31 39.69905 -115.93009 37669 ft 384 kts 214°
2026-04-22 00:31 39.65693 -115.97291 37669 ft 385 kts 215°
2026-04-22 00:32 39.61480 -116.01574 37669 ft 385 kts 215°
2026-04-22 00:32 39.57259 -116.05850 37675 ft 385 kts 215°
2026-04-22 00:33 39.53033 -116.10121 37672 ft 385 kts 215°
2026-04-22 00:33 39.48811 -116.14398 37677 ft 385 kts 216°
2026-04-22 00:34 39.44590 -116.18668 37683 ft 385 kts 215°
2026-04-22 00:34 39.40362 -116.22921 37678 ft 385 kts 216°
2026-04-22 00:35 39.36135 -116.27167 37692 ft 385 kts 216°
2026-04-22 00:35 39.31906 -116.31408 37692 ft 385 kts 216°
2026-04-22 00:36 39.27678 -116.35646 37698 ft 385 kts 216°
2026-04-22 00:36 39.24057 -116.40748 37713 ft 392 kts 234°
2026-04-22 00:37 39.21482 -116.47052 37720 ft 395 kts 237°
2026-04-22 00:37 39.18936 -116.53325 37724 ft 395 kts 237°
2026-04-22 00:38 39.16374 -116.59595 37730 ft 396 kts 237°
2026-04-22 00:38 39.13814 -116.65871 37740 ft 396 kts 238°
2026-04-22 00:39 39.11255 -116.72152 37741 ft 396 kts 238°
2026-04-22 00:39 39.08688 -116.78435 37754 ft 396 kts 238°
2026-04-22 00:40 39.06115 -116.84712 37765 ft 396 kts 238°
2026-04-22 00:40 39.03539 -116.90980 37772 ft 396 kts 238°
2026-04-22 00:41 39.00965 -116.97251 37786 ft 396 kts 238°
2026-04-22 00:41 38.98385 -117.03518 37799 ft 396 kts 238°
2026-04-22 00:42 38.95796 -117.09766 37811 ft 396 kts 238°
2026-04-22 00:42 38.93209 -117.16012 37836 ft 397 kts 238°
2026-04-22 00:43 38.90622 -117.22250 37840 ft 395 kts 238°
2026-04-22 00:43 38.88044 -117.28476 37850 ft 395 kts 238°
2026-04-22 00:44 38.85458 -117.34696 37860 ft 395 kts 238°
2026-04-22 00:44 38.82311 -117.40412 37868 ft 388 kts 219°
2026-04-22 00:45 38.78060 -117.44664 37863 ft 388 kts 217°
2026-04-22 00:45 38.73774 -117.48873 37607 ft 388 kts 217°
2026-04-22 00:45 38.71634 -117.50971 37342 ft 387 kts 217°
2026-04-22 00:46 38.69502 -117.53067 37084 ft 386 kts 217°
2026-04-22 00:46 38.67370 -117.55165 36829 ft 386 kts 217°
2026-04-22 00:46 38.65237 -117.57260 36579 ft 386 kts 217°
2026-04-22 00:46 38.63110 -117.59347 36328 ft 386 kts 217°
2026-04-22 00:47 38.60979 -117.61431 36080 ft 385 kts 217°
2026-04-22 00:47 38.58851 -117.63511 35834 ft 384 kts 217°
2026-04-22 00:47 38.56740 -117.65573 35594 ft 382 kts 217°
2026-04-22 00:47 38.54634 -117.67629 35348 ft 379 kts 216°
2026-04-22 00:48 38.52545 -117.69671 35109 ft 377 kts 216°
2026-04-22 00:48 38.50468 -117.71700 34873 ft 375 kts 216°
2026-04-22 00:48 38.48405 -117.73713 34632 ft 373 kts 216°
2026-04-22 00:48 38.46346 -117.75719 34399 ft 371 kts 216°
2026-04-22 00:49 38.44299 -117.77709 34167 ft 369 kts 216°
2026-04-22 00:49 38.42264 -117.79683 33934 ft 367 kts 216°
2026-04-22 00:49 38.40237 -117.81653 33693 ft 365 kts 216°
2026-04-22 00:49 38.38226 -117.83608 33418 ft 363 kts 216°
2026-04-22 00:50 38.36219 -117.85560 33148 ft 362 kts 216°
2026-04-22 00:50 38.34221 -117.87502 32883 ft 361 kts 216°
2026-04-22 00:50 38.32231 -117.89435 32623 ft 359 kts 216°
2026-04-22 00:50 38.30217 -117.91386 32357 ft 358 kts 216°
2026-04-22 00:51 38.28236 -117.93305 32099 ft 357 kts 216°
2026-04-22 00:51 38.26265 -117.95209 31846 ft 356 kts 217°
2026-04-22 00:51 38.24296 -117.97111 31595 ft 354 kts 217°
2026-04-22 00:51 38.22340 -117.99004 31346 ft 353 kts 217°
2026-04-22 00:52 38.20391 -118.00893 31099 ft 352 kts 217°
2026-04-22 00:52 38.18445 -118.02771 30857 ft 350 kts 217°
2026-04-22 00:52 38.16507 -118.04638 30618 ft 349 kts 217°
2026-04-22 00:52 38.14577 -118.06498 30379 ft 348 kts 218°
2026-04-22 00:53 38.12653 -118.08351 30142 ft 346 kts 218°
2026-04-22 00:53 38.10738 -118.10192 29904 ft 345 kts 218°
2026-04-22 00:53 38.08829 -118.12029 29636 ft 343 kts 218°
2026-04-22 00:53 38.06933 -118.13850 29351 ft 342 kts 218°
2026-04-22 00:54 38.05036 -118.15671 29072 ft 341 kts 218°
2026-04-22 00:54 38.03147 -118.17483 28789 ft 340 kts 218°
2026-04-22 00:54 38.01264 -118.19289 28525 ft 339 kts 218°
2026-04-22 00:54 37.99384 -118.21090 28252 ft 338 kts 218°
2026-04-22 00:55 37.97510 -118.22885 27989 ft 337 kts 218°
2026-04-22 00:55 37.95639 -118.24676 27725 ft 336 kts 218°
2026-04-22 00:55 37.91914 -118.28237 27207 ft 334 kts 218°
2026-04-22 00:56 37.90063 -118.30007 26952 ft 333 kts 219°
2026-04-22 00:56 37.88215 -118.31773 26702 ft 332 kts 218°
2026-04-22 00:56 37.86372 -118.33531 26453 ft 331 kts 219°
2026-04-22 00:56 37.84532 -118.35284 26205 ft 331 kts 219°
2026-04-22 00:57 37.82674 -118.37054 25959 ft 330 kts 219°
2026-04-22 00:57 37.80848 -118.38789 25716 ft 327 kts 219°
2026-04-22 00:57 37.79032 -118.40516 25480 ft 326 kts 219°
2026-04-22 00:57 37.77223 -118.42240 25239 ft 325 kts 219°
2026-04-22 00:58 37.75423 -118.43958 25013 ft 324 kts 219°
2026-04-22 00:58 37.73631 -118.45665 24789 ft 323 kts 219°
2026-04-22 00:58 37.71834 -118.47371 24566 ft 322 kts 219°
2026-04-22 00:58 37.70048 -118.49062 24344 ft 321 kts 219°
2026-04-22 00:59 37.68866 -118.50182 24194 ft 320 kts 219°
2026-04-22 00:59 37.67089 -118.51862 23977 ft 319 kts 219°
2026-04-22 00:59 37.65317 -118.53537 23764 ft 317 kts 219°
2026-04-22 00:59 37.63554 -118.55202 23543 ft 316 kts 219°
2026-04-22 01:00 37.61795 -118.56862 23285 ft 315 kts 219°
2026-04-22 01:00 37.60047 -118.58515 23026 ft 313 kts 219°
2026-04-22 01:00 37.58310 -118.60160 22758 ft 312 kts 219°
2026-04-22 01:00 37.56581 -118.61793 22495 ft 310 kts 219°
2026-04-22 01:01 37.54862 -118.63411 22228 ft 308 kts 219°
2026-04-22 01:01 37.53152 -118.65021 22022 ft 306 kts 219°
2026-04-22 01:01 37.51429 -118.66645 21978 ft 305 kts 219°
2026-04-22 01:01 37.49729 -118.68246 21991 ft 305 kts 219°
2026-04-22 01:02 37.48032 -118.69843 21996 ft 304 kts 219°
2026-04-22 01:02 37.46346 -118.71435 21761 ft 303 kts 219°
2026-04-22 01:02 37.44649 -118.73035 21251 ft 304 kts 219°
2026-04-22 01:02 37.42964 -118.74617 20895 ft 300 kts 219°
2026-04-22 01:03 37.41300 -118.76180 20510 ft 297 kts 219°
2026-04-22 01:03 37.39660 -118.77722 20125 ft 292 kts 219°
2026-04-22 01:03 37.38051 -118.79255 19765 ft 289 kts 220°
2026-04-22 01:03 37.36494 -118.80826 19394 ft 285 kts 221°
2026-04-22 01:04 37.34964 -118.82408 19029 ft 284 kts 221°
2026-04-22 01:04 37.33452 -118.83982 18647 ft 283 kts 221°
2026-04-22 01:04 37.31934 -118.85563 18242 ft 283 kts 221°
2026-04-22 01:04 37.30423 -118.87130 17851 ft 280 kts 221°
2026-04-22 01:05 37.28925 -118.88674 17493 ft 276 kts 220°
2026-04-22 01:05 37.27445 -118.90190 17148 ft 274 kts 220°
2026-04-22 01:05 37.25970 -118.91701 16797 ft 274 kts 220°
2026-04-22 01:05 37.24493 -118.93214 16447 ft 274 kts 220°
2026-04-22 01:06 37.23020 -118.94717 16107 ft 273 kts 220°
2026-04-22 01:06 37.21540 -118.96222 15848 ft 276 kts 220°
2026-04-22 01:06 37.20045 -118.97741 15406 ft 276 kts 219°
2026-04-22 01:06 37.18561 -118.99251 15079 ft 273 kts 219°
2026-04-22 01:07 37.17091 -119.00751 15037 ft 273 kts 219°
2026-04-22 01:07 37.15609 -119.02262 14619 ft 279 kts 219°
2026-04-22 01:07 37.14075 -119.03824 13982 ft 286 kts 219°
2026-04-22 01:07 37.12538 -119.05386 13578 ft 283 kts 219°
2026-04-22 01:08 37.11019 -119.06931 13205 ft 281 kts 219°
2026-04-22 01:08 37.09520 -119.08457 13032 ft 272 kts 219°
2026-04-22 01:08 37.08056 -119.09944 13042 ft 271 kts 219°
2026-04-22 01:08 37.06587 -119.11435 13040 ft 272 kts 219°
2026-04-22 01:09 37.05096 -119.12948 13040 ft 273 kts 219°
2026-04-22 01:09 37.03625 -119.14440 13033 ft 272 kts 219°
2026-04-22 01:09 37.02151 -119.15936 12886 ft 275 kts 219°
2026-04-22 01:09 37.00631 -119.17480 12093 ft 287 kts 219°
2026-04-22 01:10 36.99082 -119.19050 11779 ft 283 kts 219°
2026-04-22 01:10 36.97575 -119.20570 11589 ft 274 kts 219°
2026-04-22 01:10 36.96166 -119.21991 11302 ft 271 kts 219°
2026-04-22 01:10 36.94705 -119.23464 11049 ft 266 kts 219°
2026-04-22 01:11 36.93271 -119.24915 11026 ft 265 kts 219°
2026-04-22 01:11 36.91837 -119.26365 11033 ft 265 kts 219°
2026-04-22 01:11 36.90398 -119.27818 11027 ft 265 kts 218°
2026-04-22 01:11 36.88959 -119.29270 10853 ft 267 kts 219°
2026-04-22 01:12 36.87516 -119.30726 10437 ft 267 kts 219°
2026-04-22 01:12 36.86074 -119.32178 10204 ft 263 kts 219°
2026-04-22 01:12 36.84676 -119.33585 10077 ft 254 kts 219°
2026-04-22 01:12 36.83326 -119.34941 9953 ft 245 kts 219°
2026-04-22 01:13 36.82020 -119.36258 9819 ft 238 kts 219°
2026-04-22 01:13 36.80757 -119.37532 9678 ft 229 kts 219°
2026-04-22 01:13 36.79538 -119.38760 9546 ft 222 kts 219°
2026-04-22 01:13 36.78356 -119.39950 9374 ft 216 kts 219°
2026-04-22 01:14 36.77195 -119.41119 9120 ft 214 kts 219°
2026-04-22 01:14 36.76037 -119.42283 8804 ft 215 kts 219°
2026-04-22 01:14 36.74843 -119.43482 8381 ft 220 kts 219°
2026-04-22 01:14 36.73645 -119.44685 7965 ft 224 kts 219°
2026-04-22 01:15 36.72400 -119.45935 7387 ft 235 kts 219°
2026-04-22 01:15 36.71098 -119.47242 6740 ft 247 kts 219°
2026-04-22 01:15 36.69731 -119.48613 5889 ft 258 kts 219°
2026-04-22 01:15 36.68296 -119.50052 4935 ft 270 kts 219°
2026-04-22 01:16 36.67142 -119.51880 4225 ft 270 kts 247°
2026-04-22 01:16 36.67007 -119.54197 3613 ft 274 kts 282°
2026-04-22 01:16 36.67990 -119.56175 3249 ft 274 kts 317°
2026-04-22 01:16 36.69570 -119.57483 2872 ft 270 kts 323°
2026-04-22 01:17 36.70752 -119.59173 2584 ft 252 kts 295°
2026-04-22 01:17 36.71568 -119.60994 2226 ft 230 kts 298°
2026-04-22 01:17 36.72422 -119.62549 1946 ft 200 kts 301°
2026-04-22 01:17 36.73168 -119.63846 1688 ft 170 kts 301°
2026-04-22 01:18 36.73810 -119.64965 1476 ft 150 kts 300°
2026-04-22 01:18 36.74398 -119.65996 1268 ft 143 kts 301°
2026-04-22 01:18 36.74967 -119.66993 1072 ft 139 kts 303°
2026-04-22 01:18 36.75517 -119.67957 871 ft 134 kts 306°
2026-04-22 01:19 36.76051 -119.68892 695 ft 131 kts 308°
2026-04-22 01:19 36.76575 -119.69809 522 ft 129 kts 308°
2026-04-22 01:19 36.77087 -119.70713 347 ft 123 kts 310°
2026-04-22 01:19 36.77514 -119.71449 347 ft 82 kts 305°
2026-04-22 01:20 36.77755 -119.71880 340 ft 50 kts 306°
2026-04-22 01:20 36.77959 -119.72237 339 ft 37 kts 305°
2026-04-22 01:20 36.77961 -119.72422 337 ft 25 kts 215°
2026-04-22 01:20 36.77826 -119.72541 338 ft 19 kts 212°
2026-04-22 01:21 36.77724 -119.72474 340 ft 20 kts 121°
2026-04-22 01:21 36.77639 -119.72328 340 ft 22 kts 124°
2026-04-22 01:21 36.77549 -119.72165 339 ft 24 kts 125°
2026-04-22 01:21 36.77454 -119.71999 341 ft 23 kts 126°
2026-04-22 01:22 36.77365 -119.71847 339 ft 17 kts 131°
2026-04-22 01:22 36.77269 -119.71793 340 ft 12 kts 124°
2026-04-22 01:22 36.77208 -119.71785 338 ft 5 kts 227°
2026-04-22 01:22 36.77196 -119.71805 337 ft 0 kts 231°
2026-04-22 01:39 36.77197 -119.71804 337 ft 1 kts 231°
2026-04-22 01:40 36.77207 -119.71788 337 ft 3 kts 227°
2026-04-22 01:40 36.77221 -119.71770 335 ft 3 kts 220°
2026-04-22 01:40 36.77236 -119.71756 337 ft 2 kts 213°
2026-04-22 01:40 36.77242 -119.71751 337 ft 0 kts 213°
2026-04-22 01:41 36.77243 -119.71751 337 ft 0 kts 213°
2026-04-22 01:44 36.77230 -119.71740 338 ft 8 kts 134°
2026-04-22 01:44 36.77204 -119.71659 341 ft 14 kts 86°
2026-04-22 01:44 36.77187 -119.71533 339 ft 17 kts 127°
2026-04-22 01:45 36.77109 -119.71401 340 ft 20 kts 127°
2026-04-22 01:45 36.77023 -119.71248 340 ft 23 kts 126°
2026-04-22 01:45 36.76989 -119.71083 339 ft 22 kts 47°
2026-04-22 01:45 36.77108 -119.71148 337 ft 24 kts 306°
2026-04-22 01:46 36.77263 -119.71416 337 ft 64 kts 306°
2026-04-22 01:46 36.77639 -119.72073 338 ft 121 kts 305°
2026-04-22 01:46 36.78190 -119.73062 522 ft 150 kts 307°
2026-04-22 01:46 36.78821 -119.74165 1051 ft 160 kts 308°
2026-04-22 01:47 36.79551 -119.75248 1737 ft 166 kts 314°
2026-04-22 01:47 36.80675 -119.75734 2254 ft 182 kts 351°
2026-04-22 01:47 36.82006 -119.75958 2629 ft 205 kts 349°
2026-04-22 01:47 36.83507 -119.76241 3053 ft 231 kts 349°
2026-04-22 01:48 36.85175 -119.76567 3607 ft 255 kts 348°
2026-04-22 01:48 36.86997 -119.76933 4341 ft 272 kts 348°
2026-04-22 01:48 36.88887 -119.77317 5346 ft 278 kts 348°
2026-04-22 01:48 36.90806 -119.77713 6397 ft 282 kts 347°
2026-04-22 01:49 36.92756 -119.78120 7353 ft 287 kts 347°
2026-04-22 01:49 36.94740 -119.78536 8316 ft 291 kts 347°
2026-04-22 01:49 36.96754 -119.78963 9269 ft 296 kts 347°
2026-04-22 01:49 36.98799 -119.79397 10178 ft 302 kts 346°
2026-04-22 01:50 37.00954 -119.79860 10560 ft 326 kts 347°
2026-04-22 01:50 37.03248 -119.80352 11105 ft 340 kts 347°
2026-04-22 01:50 37.05632 -119.80854 11886 ft 346 kts 347°
2026-04-22 01:50 37.08019 -119.81353 12701 ft 351 kts 347°
2026-04-22 01:51 37.10444 -119.81861 13511 ft 355 kts 347°
2026-04-22 01:51 37.12895 -119.82372 14251 ft 360 kts 347°
2026-04-22 01:51 37.15385 -119.82891 14960 ft 364 kts 347°
2026-04-22 01:51 37.17894 -119.83419 15654 ft 368 kts 347°
2026-04-22 01:52 37.20436 -119.83956 16363 ft 372 kts 347°
2026-04-22 01:52 37.23004 -119.84501 17080 ft 376 kts 347°
2026-04-22 01:52 37.25601 -119.85055 17799 ft 381 kts 347°
2026-04-22 01:52 37.28224 -119.85613 18476 ft 385 kts 348°
2026-04-22 01:53 37.30878 -119.86178 19087 ft 389 kts 347°
2026-04-22 01:53 37.33557 -119.86747 19732 ft 391 kts 347°
2026-04-22 01:53 37.36250 -119.87320 20389 ft 394 kts 346°
2026-04-22 01:53 37.38967 -119.87899 21028 ft 397 kts 346°
2026-04-22 01:54 37.41699 -119.88480 21656 ft 400 kts 346°
2026-04-22 01:54 37.44453 -119.89067 22261 ft 403 kts 346°
2026-04-22 01:54 37.47229 -119.89657 22855 ft 406 kts 346°
2026-04-22 01:54 37.50027 -119.90251 23447 ft 410 kts 346°
2026-04-22 01:55 37.52856 -119.90852 23945 ft 414 kts 346°
2026-04-22 01:55 37.55707 -119.91459 24419 ft 417 kts 345°
2026-04-22 01:55 37.58582 -119.92072 24895 ft 421 kts 345°
2026-04-22 01:55 37.61478 -119.92691 25369 ft 424 kts 345°
2026-04-22 01:56 37.64392 -119.93319 25812 ft 427 kts 344°
2026-04-22 01:56 37.67329 -119.93954 26266 ft 429 kts 344°
2026-04-22 01:56 37.70278 -119.94588 26709 ft 432 kts 344°
2026-04-22 01:56 37.73254 -119.95227 27160 ft 435 kts 343°
2026-04-22 01:57 37.76243 -119.95869 27624 ft 438 kts 343°
2026-04-22 01:57 37.79255 -119.96515 28090 ft 440 kts 343°
2026-04-22 01:57 37.82286 -119.97168 28503 ft 443 kts 343°
2026-04-22 01:57 37.85326 -119.97823 28936 ft 445 kts 343°
2026-04-22 01:58 37.88396 -119.98484 29388 ft 448 kts 342°
2026-04-22 01:58 37.91476 -119.99145 29810 ft 451 kts 342°
2026-04-22 01:58 37.94615 -119.99814 30227 ft 453 kts 342°
2026-04-22 01:58 37.97730 -120.00482 30563 ft 455 kts 342°
2026-04-22 01:59 38.00857 -120.01161 30890 ft 457 kts 342°
2026-04-22 01:59 38.04002 -120.01849 31200 ft 460 kts 342°
2026-04-22 01:59 38.07165 -120.02540 31507 ft 463 kts 342°
2026-04-22 01:59 38.10341 -120.03232 31799 ft 465 kts 343°
2026-04-22 02:00 38.13539 -120.03928 32099 ft 467 kts 343°
2026-04-22 02:00 38.16747 -120.04628 32442 ft 468 kts 343°
2026-04-22 02:00 38.19953 -120.05325 32870 ft 467 kts 343°
2026-04-22 02:00 38.23151 -120.06015 33320 ft 466 kts 343°
2026-04-22 02:01 38.26345 -120.06703 33751 ft 465 kts 343°
2026-04-22 02:01 38.29531 -120.07393 34145 ft 464 kts 344°
2026-04-22 02:01 38.32717 -120.08085 34495 ft 464 kts 344°
2026-04-22 02:01 38.35900 -120.08783 34845 ft 464 kts 344°
2026-04-22 02:02 38.39076 -120.09482 35179 ft 463 kts 344°
2026-04-22 02:02 38.42251 -120.10182 35493 ft 463 kts 344°
2026-04-22 02:02 38.45427 -120.10881 35805 ft 463 kts 345°